Year,Month,Day,Hour,Minute,Value (Times are PST for windgust in km/hr)
2017,04,07,00,00,3.20
2017,04,07,00,01,1.60
2017,04,07,00,02,3.20
2017,04,07,00,03,3.20
2017,04,07,00,04,1.60
2017,04,07,00,05,3.20
2017,04,07,00,06,4.80
2017,04,07,00,07,4.80
2017,04,07,00,08,4.80
2017,04,07,00,09,3.20
2017,04,07,00,10,4.80
2017,04,07,00,11,1.60
2017,04,07,00,12,1.60
2017,04,07,00,13,3.20
2017,04,07,00,14,4.80
2017,04,07,00,15,4.80
2017,04,07,00,16,6.40
2017,04,07,00,17,6.40
2017,04,07,00,18,4.80
2017,04,07,00,19,3.20
2017,04,07,00,20,4.80
2017,04,07,00,21,3.20
2017,04,07,00,22,4.80
2017,04,07,00,23,4.80
2017,04,07,00,24,4.80
2017,04,07,00,25,4.80
2017,04,07,00,26,6.40
2017,04,07,00,27,6.40
2017,04,07,00,28,6.40
2017,04,07,00,29,4.80
2017,04,07,00,30,4.80
2017,04,07,00,31,6.40
2017,04,07,00,32,4.80
2017,04,07,00,33,4.80
2017,04,07,00,34,4.80
2017,04,07,00,35,3.20
2017,04,07,00,36,3.20
2017,04,07,00,37,4.80
2017,04,07,00,38,3.20
2017,04,07,00,39,3.20
2017,04,07,00,40,3.20
2017,04,07,00,41,3.20
2017,04,07,00,42,3.20
2017,04,07,00,43,1.60
2017,04,07,00,44,3.20
2017,04,07,00,45,1.60
2017,04,07,00,56,3.20
2017,04,07,00,57,4.80
2017,04,07,00,58,4.80
2017,04,07,00,59,4.80
2017,04,07,01,00,6.40
2017,04,07,01,01,4.80
2017,04,07,01,02,6.40
2017,04,07,01,03,4.80
2017,04,07,01,04,6.40
2017,04,07,01,05,6.40
2017,04,07,01,06,4.80
2017,04,07,01,07,6.40
2017,04,07,01,08,6.40
2017,04,07,01,09,4.80
2017,04,07,01,10,6.40
2017,04,07,01,11,6.40
2017,04,07,01,12,6.40
2017,04,07,01,13,6.40
2017,04,07,01,14,4.80
2017,04,07,01,15,6.40
2017,04,07,01,16,4.80
2017,04,07,01,17,4.80
2017,04,07,01,18,3.20
2017,04,07,01,19,6.40
2017,04,07,01,20,4.80
2017,04,07,01,21,6.40
2017,04,07,01,22,6.40
2017,04,07,01,23,4.80
2017,04,07,01,24,6.40
2017,04,07,01,25,4.80
2017,04,07,01,26,6.40
2017,04,07,01,27,6.40
2017,04,07,01,28,3.20
2017,04,07,01,29,4.80
2017,04,07,01,30,3.20
2017,04,07,01,31,4.80
2017,04,07,01,32,4.80
2017,04,07,01,33,4.80
2017,04,07,01,34,3.20
2017,04,07,01,35,4.80
2017,04,07,01,36,3.20
2017,04,07,01,37,3.20
2017,04,07,01,38,1.60
2017,04,07,01,39,6.40
2017,04,07,01,40,6.40
2017,04,07,01,41,3.20
2017,04,07,01,42,4.80
2017,04,07,01,43,4.80
2017,04,07,01,44,1.60
2017,04,07,01,46,3.20
2017,04,07,01,47,3.20
2017,04,07,01,48,3.20
2017,04,07,01,49,1.60
2017,04,07,01,50,3.20
2017,04,07,01,51,3.20
2017,04,07,01,52,3.20
2017,04,07,01,53,6.40
2017,04,07,01,54,4.80
2017,04,07,01,55,4.80
2017,04,07,01,56,4.80
2017,04,07,01,57,3.20
2017,04,07,01,58,3.20
2017,04,07,01,59,3.20
2017,04,07,02,00,3.20
2017,04,07,02,01,3.20
2017,04,07,02,02,1.60
2017,04,07,02,03,1.60
2017,04,07,03,03,6.40
2017,04,07,03,04,3.20
2017,04,07,03,05,4.80
2017,04,07,03,06,1.60
2017,04,07,03,07,3.20
2017,04,07,03,08,4.80
2017,04,07,03,09,6.40
2017,04,07,03,10,11.30
2017,04,07,03,11,8.10
2017,04,07,03,12,6.40
2017,04,07,03,13,4.80
2017,04,07,03,14,4.80
2017,04,07,03,15,6.40
2017,04,07,03,16,4.80
2017,04,07,03,17,3.20
2017,04,07,03,18,6.40
2017,04,07,03,19,4.80
2017,04,07,03,20,4.80
2017,04,07,03,21,6.40
2017,04,07,03,22,9.60
2017,04,07,03,23,6.40
2017,04,07,03,24,6.40
2017,04,07,03,25,9.60
2017,04,07,03,26,9.60
2017,04,07,03,27,6.40
2017,04,07,03,28,6.40
2017,04,07,03,29,6.40
2017,04,07,03,30,9.60
2017,04,07,03,31,9.60
2017,04,07,03,32,4.80
2017,04,07,03,33,6.40
2017,04,07,03,34,4.80
2017,04,07,03,35,4.80
2017,04,07,03,36,11.30
2017,04,07,03,37,8.10
2017,04,07,03,38,4.80
2017,04,07,03,39,4.80
2017,04,07,03,40,4.80
2017,04,07,03,41,4.80
2017,04,07,03,42,6.40
2017,04,07,03,43,4.80
2017,04,07,03,44,4.80
2017,04,07,03,45,6.40
2017,04,07,03,46,6.40
2017,04,07,03,47,4.80
2017,04,07,03,48,4.80
2017,04,07,03,49,4.80
2017,04,07,03,50,6.40
2017,04,07,03,52,3.20
2017,04,07,03,53,3.20
2017,04,07,03,54,4.80
2017,04,07,03,55,9.60
2017,04,07,03,56,9.60
2017,04,07,03,57,9.60
2017,04,07,03,58,6.40
2017,04,07,03,59,6.40
2017,04,07,04,00,6.40
2017,04,07,04,01,12.90
2017,04,07,04,02,11.30
2017,04,07,04,03,12.90
2017,04,07,04,04,9.60
2017,04,07,04,05,12.90
2017,04,07,04,06,11.30
2017,04,07,04,07,11.30
2017,04,07,04,08,12.90
2017,04,07,04,09,9.60
2017,04,07,04,10,12.90
2017,04,07,04,11,11.30
2017,04,07,04,12,8.10
2017,04,07,04,13,11.30
2017,04,07,04,14,11.30
2017,04,07,04,15,11.30
2017,04,07,04,16,12.90
2017,04,07,04,17,11.30
2017,04,07,04,18,12.90
2017,04,07,04,19,12.90
2017,04,07,04,20,9.60
2017,04,07,04,21,9.60
2017,04,07,04,22,11.30
2017,04,07,04,23,9.60
2017,04,07,04,24,12.90
2017,04,07,04,25,9.60
2017,04,07,04,26,12.90
2017,04,07,04,27,6.40
2017,04,07,04,28,11.30
2017,04,07,04,29,11.30
2017,04,07,04,30,11.30
2017,04,07,04,31,6.40
2017,04,07,04,32,12.90
2017,04,07,04,33,9.60
2017,04,07,04,34,11.30
2017,04,07,04,35,12.90
2017,04,07,04,36,11.30
2017,04,07,04,37,11.30
2017,04,07,04,38,9.60
2017,04,07,04,39,9.60
2017,04,07,04,40,9.60
2017,04,07,04,41,4.80
2017,04,07,04,42,9.60
2017,04,07,04,43,11.30
2017,04,07,04,44,9.60
2017,04,07,04,45,4.80
2017,04,07,04,46,9.60
2017,04,07,04,47,4.80
2017,04,07,04,48,8.10
2017,04,07,04,49,11.30
2017,04,07,04,50,6.40
2017,04,07,04,51,4.80
2017,04,07,04,52,14.50
2017,04,07,04,53,9.60
2017,04,07,04,54,4.80
2017,04,07,04,55,12.90
2017,04,07,04,56,11.30
2017,04,07,04,57,11.30
2017,04,07,04,58,11.30
2017,04,07,04,59,9.60
2017,04,07,05,00,9.60
2017,04,07,05,01,8.10
2017,04,07,05,02,6.40
2017,04,07,05,03,6.40
2017,04,07,05,04,8.10
2017,04,07,05,05,11.30
2017,04,07,05,06,6.40
2017,04,07,05,07,11.30
2017,04,07,05,08,9.60
2017,04,07,05,09,6.40
2017,04,07,05,10,6.40
2017,04,07,05,11,4.80
2017,04,07,05,12,3.20
2017,04,07,05,13,1.60
2017,04,07,05,18,6.40
2017,04,07,05,19,4.80
2017,04,07,05,21,6.40
2017,04,07,05,22,6.40
2017,04,07,05,23,4.80
2017,04,07,05,24,1.60
2017,04,07,05,25,9.60
2017,04,07,05,26,6.40
2017,04,07,05,27,6.40
2017,04,07,05,28,9.60
2017,04,07,05,29,1.60
2017,04,07,05,30,4.80
2017,04,07,05,31,4.80
2017,04,07,05,32,4.80
2017,04,07,05,33,1.60
2017,04,07,05,34,6.40
2017,04,07,05,35,11.30
2017,04,07,05,36,6.40
2017,04,07,05,37,6.40
2017,04,07,05,38,3.20
2017,04,07,05,46,1.60
2017,04,07,05,47,3.20
2017,04,07,05,48,3.20
2017,04,07,05,52,1.60
2017,04,07,06,01,1.60
2017,04,07,06,02,1.60
2017,04,07,06,05,1.60
2017,04,07,06,06,1.60
2017,04,07,06,08,1.60
2017,04,07,06,19,1.60
2017,04,07,06,20,1.60
2017,04,07,06,21,3.20
2017,04,07,06,22,3.20
2017,04,07,06,33,4.80
2017,04,07,06,34,6.40
2017,04,07,06,35,8.10
2017,04,07,06,36,3.20
2017,04,07,06,37,6.40
2017,04,07,06,38,1.60
2017,04,07,06,41,1.60
2017,04,07,06,42,1.60
2017,04,07,06,43,1.60
2017,04,07,06,46,1.60
2017,04,07,06,47,3.20
2017,04,07,06,48,3.20
2017,04,07,06,49,3.20
2017,04,07,06,50,3.20
2017,04,07,06,51,3.20
2017,04,07,06,56,3.20
2017,04,07,07,23,4.80
2017,04,07,07,24,4.80
2017,04,07,07,25,3.20
2017,04,07,07,26,3.20
2017,04,07,07,28,1.60
2017,04,07,07,29,3.20
2017,04,07,07,30,4.80
2017,04,07,07,31,3.20
2017,04,07,07,32,3.20
2017,04,07,07,33,3.20
2017,04,07,08,05,3.20
2017,04,07,08,06,3.20
2017,04,07,08,07,3.20
2017,04,07,08,20,3.20
2017,04,07,08,21,3.20
2017,04,07,08,22,3.20
2017,04,07,08,23,1.60
2017,04,07,08,24,3.20
2017,04,07,08,25,3.20
2017,04,07,08,26,4.80
2017,04,07,08,27,6.40
2017,04,07,08,28,6.40
2017,04,07,08,29,4.80
2017,04,07,08,30,4.80
2017,04,07,08,31,4.80
2017,04,07,08,32,6.40
2017,04,07,08,33,6.40
2017,04,07,08,34,6.40
2017,04,07,08,35,6.40
2017,04,07,08,36,8.10
2017,04,07,08,37,4.80
2017,04,07,08,38,4.80
2017,04,07,08,39,4.80
2017,04,07,08,40,6.40
2017,04,07,08,41,4.80
2017,04,07,08,42,3.20
2017,04,07,08,43,4.80
2017,04,07,08,44,3.20
2017,04,07,08,45,4.80
2017,04,07,08,46,6.40
2017,04,07,08,47,4.80
2017,04,07,08,48,6.40
2017,04,07,08,49,4.80
2017,04,07,08,50,4.80
2017,04,07,08,51,6.40
2017,04,07,08,52,4.80
2017,04,07,08,53,6.40
2017,04,07,08,54,6.40
2017,04,07,08,55,6.40
2017,04,07,08,56,6.40
2017,04,07,08,57,6.40
2017,04,07,08,58,4.80
2017,04,07,08,59,6.40
2017,04,07,09,00,4.80
2017,04,07,09,01,6.40
2017,04,07,09,02,4.80
2017,04,07,09,03,4.80
2017,04,07,09,04,4.80
2017,04,07,09,05,4.80
2017,04,07,09,06,3.20
2017,04,07,09,07,6.40
2017,04,07,09,08,6.40
2017,04,07,09,09,6.40
2017,04,07,09,10,4.80
2017,04,07,09,11,6.40
2017,04,07,09,12,6.40
2017,04,07,09,13,6.40
2017,04,07,09,14,6.40
2017,04,07,09,15,3.20
2017,04,07,09,16,4.80
2017,04,07,09,17,3.20
2017,04,07,09,18,1.60
2017,04,07,09,19,3.20
2017,04,07,09,20,3.20
2017,04,07,09,21,3.20
2017,04,07,09,22,4.80
2017,04,07,09,23,6.40
2017,04,07,09,24,4.80
2017,04,07,09,25,8.10
2017,04,07,09,26,6.40
2017,04,07,09,27,6.40
2017,04,07,09,28,6.40
2017,04,07,09,29,4.80
2017,04,07,09,30,4.80
2017,04,07,09,31,6.40
2017,04,07,09,32,11.30
2017,04,07,09,33,9.60
2017,04,07,09,34,4.80
2017,04,07,09,35,4.80
2017,04,07,09,36,4.80
2017,04,07,09,37,3.20
2017,04,07,09,38,3.20
2017,04,07,09,39,6.40
2017,04,07,09,40,4.80
2017,04,07,09,41,4.80
2017,04,07,09,42,3.20
2017,04,07,09,43,6.40
2017,04,07,09,44,4.80
2017,04,07,09,45,1.60
2017,04,07,09,46,3.20
2017,04,07,09,47,3.20
2017,04,07,09,48,4.80
2017,04,07,09,49,3.20
2017,04,07,09,50,1.60
2017,04,07,09,51,1.60
2017,04,07,09,52,4.80
2017,04,07,09,53,4.80
2017,04,07,09,54,3.20
2017,04,07,09,55,1.60
2017,04,07,09,56,4.80
2017,04,07,09,57,6.40
2017,04,07,09,58,6.40
2017,04,07,09,59,4.80
2017,04,07,10,00,4.80
2017,04,07,10,01,4.80
2017,04,07,10,02,4.80
2017,04,07,10,03,4.80
2017,04,07,10,04,4.80
2017,04,07,10,05,3.20
2017,04,07,10,06,3.20
2017,04,07,10,07,4.80
2017,04,07,10,08,4.80
2017,04,07,10,09,4.80
2017,04,07,10,10,1.60
2017,04,07,10,13,3.20
2017,04,07,10,14,3.20
2017,04,07,10,15,1.60
2017,04,07,10,16,1.60
2017,04,07,10,17,1.60
2017,04,07,10,18,1.60
2017,04,07,10,19,3.20
2017,04,07,10,20,3.20
2017,04,07,10,21,3.20
2017,04,07,10,22,1.60
2017,04,07,10,23,3.20
2017,04,07,10,24,1.60
2017,04,07,10,25,1.60
2017,04,07,10,26,1.60
2017,04,07,10,27,3.20
2017,04,07,10,28,1.60
2017,04,07,10,29,1.60
2017,04,07,10,32,4.80
2017,04,07,10,33,3.20
2017,04,07,10,34,1.60
2017,04,07,10,36,3.20
2017,04,07,10,37,6.40
2017,04,07,10,38,4.80
2017,04,07,10,39,3.20
2017,04,07,10,40,1.60
2017,04,07,10,41,3.20
2017,04,07,10,42,3.20
2017,04,07,10,43,3.20
2017,04,07,10,44,3.20
2017,04,07,10,45,4.80
2017,04,07,10,46,4.80
2017,04,07,10,47,6.40
2017,04,07,10,48,8.10
2017,04,07,10,49,4.80
2017,04,07,10,50,4.80
2017,04,07,10,51,3.20
2017,04,07,10,53,1.60
2017,04,07,10,55,3.20
2017,04,07,10,56,3.20
2017,04,07,10,57,1.60
2017,04,07,10,58,1.60
2017,04,07,10,59,3.20
2017,04,07,11,00,3.20
2017,04,07,11,01,3.20
2017,04,07,11,02,3.20
2017,04,07,11,03,1.60
2017,04,07,11,04,3.20
2017,04,07,11,05,3.20
2017,04,07,11,06,3.20
2017,04,07,11,07,3.20
2017,04,07,11,08,1.60
2017,04,07,11,09,3.20
2017,04,07,11,10,3.20
2017,04,07,11,11,3.20
2017,04,07,11,12,3.20
2017,04,07,11,13,4.80
2017,04,07,11,14,4.80
2017,04,07,11,15,4.80
2017,04,07,11,17,4.80
2017,04,07,11,18,4.80
2017,04,07,11,19,4.80
2017,04,07,11,20,4.80
2017,04,07,11,21,4.80
2017,04,07,11,22,4.80
2017,04,07,11,23,4.80
2017,04,07,11,24,1.60
2017,04,07,11,25,3.20
2017,04,07,11,26,3.20
2017,04,07,11,27,4.80
2017,04,07,11,28,4.80
2017,04,07,11,29,6.40
2017,04,07,11,30,3.20
2017,04,07,11,31,1.60
2017,04,07,11,39,1.60
2017,04,07,11,40,6.40
2017,04,07,11,41,3.20
2017,04,07,11,42,4.80
2017,04,07,11,43,6.40
2017,04,07,11,44,6.40
2017,04,07,11,45,6.40
2017,04,07,11,46,3.20
2017,04,07,11,47,3.20
2017,04,07,11,48,1.60
2017,04,07,11,49,6.40
2017,04,07,11,50,4.80
2017,04,07,11,51,4.80
2017,04,07,11,52,1.60
2017,04,07,11,55,4.80
2017,04,07,11,56,3.20
2017,04,07,11,57,1.60
2017,04,07,11,58,4.80
2017,04,07,11,59,6.40
2017,04,07,12,00,3.20
2017,04,07,12,01,3.20
2017,04,07,12,02,3.20
2017,04,07,12,03,4.80
2017,04,07,12,04,4.80
2017,04,07,12,05,4.80
2017,04,07,12,06,4.80
2017,04,07,12,07,4.80
2017,04,07,12,08,1.60
2017,04,07,12,09,6.40
2017,04,07,12,10,4.80
2017,04,07,12,11,4.80
2017,04,07,12,12,4.80
2017,04,07,12,13,4.80
2017,04,07,12,14,4.80
2017,04,07,12,15,3.20
2017,04,07,12,16,4.80
2017,04,07,12,17,3.20
2017,04,07,12,18,4.80
2017,04,07,12,19,4.80
2017,04,07,12,20,4.80
2017,04,07,12,21,3.20
2017,04,07,12,22,4.80
2017,04,07,12,23,4.80
2017,04,07,12,24,4.80
2017,04,07,12,25,3.20
2017,04,07,12,26,3.20
2017,04,07,12,27,3.20
2017,04,07,12,28,3.20
2017,04,07,12,29,1.60
2017,04,07,12,33,1.60
2017,04,07,12,44,3.20
2017,04,07,12,45,4.80
2017,04,07,12,46,1.60
2017,04,07,12,47,3.20
2017,04,07,12,48,3.20
2017,04,07,12,49,4.80
2017,04,07,12,50,1.60
2017,04,07,12,51,1.60
2017,04,07,12,52,1.60
2017,04,07,12,53,1.60
2017,04,07,12,54,4.80
2017,04,07,12,55,3.20
2017,04,07,12,56,1.60
2017,04,07,12,57,1.60
2017,04,07,13,00,1.60
2017,04,07,13,01,1.60
2017,04,07,13,05,1.60
2017,04,07,13,06,3.20
2017,04,07,13,09,1.60
2017,04,07,13,11,1.60
2017,04,07,13,12,3.20
2017,04,07,13,13,3.20
2017,04,07,13,14,4.80
2017,04,07,13,15,4.80
2017,04,07,13,16,4.80
2017,04,07,13,17,4.80
2017,04,07,13,18,3.20
2017,04,07,13,19,4.80
2017,04,07,13,20,3.20
2017,04,07,13,21,3.20
2017,04,07,13,22,4.80
2017,04,07,13,23,6.40
2017,04,07,13,24,3.20
2017,04,07,13,25,3.20
2017,04,07,13,35,3.20
2017,04,07,13,42,1.60
2017,04,07,13,43,3.20
2017,04,07,13,44,1.60
2017,04,07,13,47,3.20
2017,04,07,13,48,3.20
2017,04,07,13,49,1.60
2017,04,07,13,51,3.20
2017,04,07,13,52,1.60
2017,04,07,13,57,3.20
2017,04,07,13,58,3.20
2017,04,07,14,00,1.60
2017,04,07,14,01,4.80
2017,04,07,14,02,4.80
2017,04,07,14,03,3.20
2017,04,07,14,05,3.20
2017,04,07,14,06,4.80
2017,04,07,14,22,1.60
2017,04,07,14,23,1.60
2017,04,07,14,24,3.20
2017,04,07,14,25,4.80
2017,04,07,14,26,4.80
2017,04,07,14,35,1.60
2017,04,07,14,36,3.20
2017,04,07,14,37,1.60
2017,04,07,14,38,3.20
2017,04,07,14,39,1.60
2017,04,07,14,41,4.80
2017,04,07,14,42,1.60
2017,04,07,14,43,1.60
2017,04,07,14,44,3.20
2017,04,07,14,45,3.20
2017,04,07,14,48,3.20
2017,04,07,14,49,4.80
2017,04,07,14,50,3.20
2017,04,07,14,51,3.20
2017,04,07,14,52,4.80
2017,04,07,14,53,3.20
2017,04,07,14,54,6.40
2017,04,07,14,55,4.80
2017,04,07,14,56,1.60
2017,04,07,14,57,3.20
2017,04,07,14,58,3.20
2017,04,07,14,59,3.20
2017,04,07,15,00,3.20
2017,04,07,15,01,4.80
2017,04,07,15,02,3.20
2017,04,07,15,03,4.80
2017,04,07,15,04,4.80
2017,04,07,15,05,4.80
2017,04,07,15,06,3.20
2017,04,07,15,07,3.20
2017,04,07,15,08,4.80
2017,04,07,15,09,4.80
2017,04,07,15,10,6.40
2017,04,07,15,11,3.20
2017,04,07,15,12,6.40
2017,04,07,15,13,4.80
2017,04,07,15,14,6.40
2017,04,07,15,15,4.80
2017,04,07,15,16,4.80
2017,04,07,15,17,3.20
2017,04,07,15,18,3.20
2017,04,07,15,19,4.80
2017,04,07,15,20,1.60
2017,04,07,15,21,3.20
2017,04,07,15,22,1.60
2017,04,07,15,23,4.80
2017,04,07,15,24,4.80
2017,04,07,15,25,3.20
2017,04,07,15,26,6.40
2017,04,07,15,27,6.40
2017,04,07,15,28,4.80
2017,04,07,15,29,6.40
2017,04,07,15,30,8.10
2017,04,07,15,31,6.40
2017,04,07,15,32,6.40
2017,04,07,15,33,8.10
2017,04,07,15,34,11.30
2017,04,07,15,35,11.30
2017,04,07,15,36,8.10
2017,04,07,15,37,8.10
2017,04,07,15,38,9.60
2017,04,07,15,39,8.10
2017,04,07,15,40,8.10
2017,04,07,15,41,8.10
2017,04,07,15,42,4.80
2017,04,07,15,43,3.20
2017,04,07,15,44,6.40
2017,04,07,15,45,3.20
2017,04,07,15,46,11.30
2017,04,07,15,47,6.40
2017,04,07,15,48,6.40
2017,04,07,15,49,4.80
2017,04,07,15,50,6.40
2017,04,07,15,51,4.80
2017,04,07,15,52,6.40
2017,04,07,15,53,6.40
2017,04,07,15,54,9.60
2017,04,07,15,55,6.40
2017,04,07,15,56,11.30
2017,04,07,15,57,6.40
2017,04,07,15,58,9.60
2017,04,07,15,59,11.30
2017,04,07,16,00,6.40
2017,04,07,16,01,9.60
2017,04,07,16,02,12.90
2017,04,07,16,03,12.90
2017,04,07,16,04,11.30
2017,04,07,16,05,12.90
2017,04,07,16,06,11.30
2017,04,07,16,07,8.10
2017,04,07,16,08,11.30
2017,04,07,16,09,14.50
2017,04,07,16,10,9.60
2017,04,07,16,11,9.60
2017,04,07,16,12,12.90
2017,04,07,16,13,12.90
2017,04,07,16,14,9.60
2017,04,07,16,15,12.90
2017,04,07,16,16,11.30
2017,04,07,16,17,9.60
2017,04,07,16,18,11.30
2017,04,07,16,19,12.90
2017,04,07,16,20,11.30
2017,04,07,16,21,11.30
2017,04,07,16,22,11.30
2017,04,07,16,23,12.90
2017,04,07,16,24,9.60
2017,04,07,16,25,6.40
2017,04,07,16,26,8.10
2017,04,07,16,27,6.40
2017,04,07,16,28,6.40
2017,04,07,16,29,6.40
2017,04,07,16,30,4.80
2017,04,07,16,31,9.60
2017,04,07,16,32,9.60
2017,04,07,16,33,4.80
2017,04,07,16,34,4.80
2017,04,07,16,35,12.90
2017,04,07,16,36,9.60
2017,04,07,16,37,6.40
2017,04,07,16,38,6.40
2017,04,07,16,39,9.60
2017,04,07,16,40,6.40
2017,04,07,16,41,11.30
2017,04,07,16,42,12.90
2017,04,07,16,43,11.30
2017,04,07,16,44,8.10
2017,04,07,16,45,14.50
2017,04,07,16,46,14.50
2017,04,07,16,47,9.60
2017,04,07,16,48,11.30
2017,04,07,16,49,11.30
2017,04,07,16,50,9.60
2017,04,07,16,51,11.30
2017,04,07,16,52,9.60
2017,04,07,16,53,9.60
2017,04,07,16,54,17.70
2017,04,07,16,55,16.10
2017,04,07,16,56,19.30
2017,04,07,16,57,14.50
2017,04,07,16,58,17.70
2017,04,07,16,59,12.90
2017,04,07,17,00,19.30
2017,04,07,17,01,17.70
2017,04,07,17,02,14.50
2017,04,07,17,03,19.30
2017,04,07,17,04,14.50
2017,04,07,17,05,17.70
2017,04,07,17,06,14.50
2017,04,07,17,07,14.50
2017,04,07,17,08,16.10
2017,04,07,17,09,20.90
2017,04,07,17,10,19.30
2017,04,07,17,11,19.30
2017,04,07,17,12,22.50
2017,04,07,17,13,27.40
2017,04,07,17,14,25.70
2017,04,07,17,15,20.90
2017,04,07,17,16,24.20
2017,04,07,17,17,19.30
2017,04,07,17,18,17.70
2017,04,07,17,19,14.50
2017,04,07,17,20,14.50
2017,04,07,17,21,17.70
2017,04,07,17,22,22.50
2017,04,07,17,23,29.00
2017,04,07,17,24,46.70
2017,04,07,17,25,41.80
2017,04,07,17,26,38.60
2017,04,07,17,27,41.80
2017,04,07,17,28,46.70
2017,04,07,17,29,41.80
2017,04,07,17,30,38.60
2017,04,07,17,31,37.00
2017,04,07,17,32,38.60
2017,04,07,17,33,45.10
2017,04,07,17,34,46.70
2017,04,07,17,35,41.80
2017,04,07,17,36,51.50
2017,04,07,17,37,46.70
2017,04,07,17,38,45.10
2017,04,07,17,39,49.90
2017,04,07,17,40,43.50
2017,04,07,17,41,41.80
2017,04,07,17,42,45.10
2017,04,07,17,43,46.70
2017,04,07,17,44,46.70
2017,04,07,17,45,53.10
2017,04,07,17,46,54.70
2017,04,07,17,47,48.30
2017,04,07,17,48,61.20
2017,04,07,17,49,48.30
2017,04,07,17,50,57.90
2017,04,07,17,51,54.70
2017,04,07,17,52,57.90
2017,04,07,17,53,61.20
2017,04,07,17,54,51.50
2017,04,07,17,55,51.50
2017,04,07,17,56,53.10
2017,04,07,17,57,45.10
2017,04,07,17,58,41.80
2017,04,07,17,59,45.10
2017,04,07,18,00,51.50
2017,04,07,18,01,40.20
2017,04,07,18,02,51.50
2017,04,07,18,03,53.10
2017,04,07,18,04,45.10
2017,04,07,18,05,48.30
2017,04,07,18,06,43.50
2017,04,07,18,07,43.50
2017,04,07,18,08,40.20
2017,04,07,18,09,41.80
2017,04,07,18,10,43.50
2017,04,07,18,11,43.50
2017,04,07,18,12,49.90
2017,04,07,18,13,45.10
2017,04,07,18,14,43.50
2017,04,07,18,15,40.20
2017,04,07,18,16,48.30
2017,04,07,18,17,41.80
2017,04,07,18,18,51.50
2017,04,07,18,19,49.90
2017,04,07,18,20,45.10
2017,04,07,18,21,61.20
2017,04,07,18,22,53.10
2017,04,07,18,23,53.10
2017,04,07,18,24,56.30
2017,04,07,18,25,49.90
2017,04,07,18,26,49.90
2017,04,07,18,27,61.20
2017,04,07,18,28,51.50
2017,04,07,18,29,46.70
2017,04,07,18,30,56.30
2017,04,07,18,31,46.70
2017,04,07,18,32,46.70
2017,04,07,18,33,46.70
2017,04,07,18,34,48.30
2017,04,07,18,35,43.50
2017,04,07,18,36,38.60
2017,04,07,18,37,43.50
2017,04,07,18,38,41.80
2017,04,07,18,39,46.70
2017,04,07,18,40,46.70
2017,04,07,18,41,51.50
2017,04,07,18,42,45.10
2017,04,07,18,43,40.20
2017,04,07,18,44,51.50
2017,04,07,18,45,56.30
2017,04,07,18,46,54.70
2017,04,07,18,47,56.30
2017,04,07,18,48,46.70
2017,04,07,18,49,49.90
2017,04,07,18,50,45.10
2017,04,07,18,51,46.70
2017,04,07,18,52,48.30
2017,04,07,18,53,38.60
2017,04,07,18,54,40.20
2017,04,07,18,55,45.10
2017,04,07,18,56,41.80
2017,04,07,18,57,45.10
2017,04,07,18,58,45.10
2017,04,07,18,59,46.70
2017,04,07,19,00,49.90
2017,04,07,19,01,41.80
2017,04,07,19,02,38.60
2017,04,07,19,03,46.70
2017,04,07,19,04,46.70
2017,04,07,19,05,48.30
2017,04,07,19,06,46.70
2017,04,07,19,07,41.80
2017,04,07,19,08,41.80
2017,04,07,19,09,54.70
2017,04,07,19,10,51.50
2017,04,07,19,11,49.90
2017,04,07,19,12,56.30
2017,04,07,19,13,51.50
2017,04,07,19,14,57.90
2017,04,07,19,15,51.50
2017,04,07,19,16,41.80
2017,04,07,19,17,45.10
2017,04,07,19,18,35.40
2017,04,07,19,19,37.00
2017,04,07,19,20,46.70
2017,04,07,19,21,49.90
2017,04,07,19,22,49.90
2017,04,07,19,23,54.70
2017,04,07,19,24,46.70
2017,04,07,19,25,49.90
2017,04,07,19,26,41.80
2017,04,07,19,27,54.70
2017,04,07,19,28,54.70
2017,04,07,19,29,41.80
2017,04,07,19,30,46.70
2017,04,07,19,31,49.90
2017,04,07,19,32,43.50
2017,04,07,19,33,46.70
2017,04,07,19,34,38.60
2017,04,07,19,35,35.40
2017,04,07,19,36,40.20
2017,04,07,19,37,43.50
2017,04,07,19,38,43.50
2017,04,07,19,39,41.80
2017,04,07,19,40,48.30
2017,04,07,19,41,48.30
2017,04,07,19,42,41.80
2017,04,07,19,43,51.50
2017,04,07,19,44,43.50
2017,04,07,19,45,45.10
2017,04,07,19,46,41.80
2017,04,07,19,47,43.50
2017,04,07,19,48,41.80
2017,04,07,19,49,40.20
2017,04,07,19,50,54.70
2017,04,07,19,51,45.10
2017,04,07,19,52,40.20
2017,04,07,19,53,41.80
2017,04,07,19,54,40.20
2017,04,07,19,55,38.60
2017,04,07,19,56,43.50
2017,04,07,19,57,49.90
2017,04,07,19,58,41.80
2017,04,07,19,59,32.20
2017,04,07,20,00,25.70
2017,04,07,20,01,35.40
2017,04,07,20,02,33.80
2017,04,07,20,03,43.50
2017,04,07,20,04,29.00
2017,04,07,20,05,37.00
2017,04,07,20,06,37.00
2017,04,07,20,07,37.00
2017,04,07,20,08,38.60
2017,04,07,20,09,43.50
2017,04,07,20,10,38.60
2017,04,07,20,11,40.20
2017,04,07,20,12,38.60
2017,04,07,20,13,46.70
2017,04,07,20,14,49.90
2017,04,07,20,15,41.80
2017,04,07,20,16,41.80
2017,04,07,20,17,46.70
2017,04,07,20,18,46.70
2017,04,07,20,19,46.70
2017,04,07,20,20,53.10
2017,04,07,20,21,54.70
2017,04,07,20,22,57.90
2017,04,07,20,23,57.90
2017,04,07,20,24,56.30
2017,04,07,20,25,40.20
2017,04,07,20,26,43.50
2017,04,07,20,27,45.10
2017,04,07,20,28,32.20
2017,04,07,20,29,30.60
2017,04,07,20,30,33.80
2017,04,07,20,31,38.60
2017,04,07,20,32,30.60
2017,04,07,20,33,27.40
2017,04,07,20,34,30.60
2017,04,07,20,35,25.70
2017,04,07,20,36,24.20
2017,04,07,20,37,25.70
2017,04,07,20,38,25.70
2017,04,07,20,39,27.40
2017,04,07,20,40,25.70
2017,04,07,20,41,35.40
2017,04,07,20,42,29.00
2017,04,07,20,43,32.20
2017,04,07,20,44,33.80
2017,04,07,20,45,38.60
2017,04,07,20,46,27.40
2017,04,07,20,47,30.60
2017,04,07,20,48,32.20
2017,04,07,20,49,40.20
2017,04,07,20,50,32.20
2017,04,07,20,51,29.00
2017,04,07,20,52,32.20
2017,04,07,20,53,25.70
2017,04,07,20,54,27.40
2017,04,07,20,55,29.00
2017,04,07,20,56,32.20
2017,04,07,20,57,25.70
2017,04,07,20,58,29.00
2017,04,07,20,59,24.20
2017,04,07,21,00,38.60
2017,04,07,21,01,27.40
2017,04,07,21,02,30.60
2017,04,07,21,03,30.60
2017,04,07,21,04,37.00
2017,04,07,21,05,24.20
2017,04,07,21,06,22.50
2017,04,07,21,07,30.60
2017,04,07,21,08,29.00
2017,04,07,21,09,27.40
2017,04,07,21,10,37.00
2017,04,07,21,11,45.10
2017,04,07,21,12,45.10
2017,04,07,21,13,32.20
2017,04,07,21,14,32.20
2017,04,07,21,15,38.60
2017,04,07,21,16,43.50
2017,04,07,21,17,24.20
2017,04,07,21,18,46.70
2017,04,07,21,19,37.00
2017,04,07,21,20,38.60
2017,04,07,21,21,32.20
2017,04,07,21,22,33.80
2017,04,07,21,23,32.20
2017,04,07,21,24,29.00
2017,04,07,21,25,35.40
2017,04,07,21,26,43.50
2017,04,07,21,27,38.60
2017,04,07,21,28,37.00
2017,04,07,21,29,32.20
2017,04,07,21,30,35.40
2017,04,07,21,31,25.70
2017,04,07,21,32,30.60
2017,04,07,21,33,22.50
2017,04,07,21,34,35.40
2017,04,07,21,35,25.70
2017,04,07,21,36,53.10
2017,04,07,21,37,29.00
2017,04,07,21,38,22.50
2017,04,07,21,39,22.50
2017,04,07,21,40,27.40
2017,04,07,21,41,29.00
2017,04,07,21,42,33.80
2017,04,07,21,43,32.20
2017,04,07,21,44,20.90
2017,04,07,21,45,32.20
2017,04,07,21,46,24.20
2017,04,07,21,47,20.90
2017,04,07,21,48,19.30
2017,04,07,21,49,24.20
2017,04,07,21,50,29.00
2017,04,07,21,51,25.70
2017,04,07,21,52,25.70
2017,04,07,21,53,30.60
2017,04,07,21,54,24.20
2017,04,07,21,55,22.50
2017,04,07,21,56,20.90
2017,04,07,21,57,20.90
2017,04,07,21,58,25.70
2017,04,07,21,59,22.50
2017,04,07,22,00,37.00
2017,04,07,22,01,37.00
2017,04,07,22,02,25.70
2017,04,07,22,03,32.20
2017,04,07,22,04,41.80
2017,04,07,22,05,32.20
2017,04,07,22,06,24.20
2017,04,07,22,07,32.20
2017,04,07,22,08,27.40
2017,04,07,22,09,27.40
2017,04,07,22,10,24.20
2017,04,07,22,11,27.40
2017,04,07,22,12,33.80
2017,04,07,22,13,25.70
2017,04,07,22,14,32.20
2017,04,07,22,15,30.60
2017,04,07,22,16,38.60
2017,04,07,22,17,29.00
2017,04,07,22,18,38.60
2017,04,07,22,19,30.60
2017,04,07,22,20,33.80
2017,04,07,22,21,29.00
2017,04,07,22,22,27.40
2017,04,07,22,23,33.80
2017,04,07,22,24,49.90
2017,04,07,22,25,35.40
2017,04,07,22,26,35.40
2017,04,07,22,27,37.00
2017,04,07,22,28,41.80
2017,04,07,22,29,24.20
2017,04,07,22,30,29.00
2017,04,07,22,31,32.20